Terminal Aerodrome Forecast
Issued by NWS

Home | Current Version | Previous Version | Graphics & Text | Print | Product List | Glossary On
Versions: 1 2 3 4 5 6 7 8 9 10 11 12 13 14 15 16 17 18 19
000
FTUS42 KMHX 232300
TAFOAJ
TAF
KOAJ 232320Z 2400/2424 16006KT P6SM VCTS FEW020 SCT030CB BKN060
     FM240400 21004KT P6SM SCT030
     FM241800 23008KT P6SM VCTS SCT040CB
     FM242300 31007KT P6SM VCTS BKN040CB
      AMD LTD TO CLD VIS AND WIND=

USA.gov is the U.S. government's official web portal to all federal, state and local government web resources and services.